sat.trackr.live / text

‹ back to catalog

STARLINK-11386 [DTC]

NORAD 62098 · 2024-220L

PAYLOAD ACTIVE UNKNOWN

§ Identity

Operator
Country
US
Launch date
2024-11-25
Launch site
AFETR
Launch vehicle
Mass (kg)
RCS (m²)

Purposes: comms

External: N2YO · Heavens-Above · Gunter

§ Orbital elements

Epoch: 2026-05-24T20:08:16.175904Z

Period
91.66 min
Inclination
43.0002°
Eccentricity
0.0004249
Mean motion
15.70979410 rev/d
Perigee alt
353.2 km
Apogee alt
359.0 km
Semi-major
6,734.2 km
B*
1.3060e-3
RAAN
303.7001°
Arg perigee
256.0130°
Mean anomaly
104.0266°
Rev number
8,693

§ Raw data

STARLINK-11386 [DTC]1 62098U 24220L   26144.83907611  .00171689  00000+0  13060-2 0  99902 62098  43.0002 303.7001 0004249 256.0130 104.0266 15.70979410 86934

JSON: /api/v1/satellites/62098 · /tle

For live sub-satellite position, see the globe view (requires WebGL).

§ Visibility from observer

Set your observer location to see the next 7 days of passes ≥ 10°. The values pass through the URL so the page stays shareable.

No JS? Fill the form by hand. The geolocation button needs JavaScript.